"Pseudo-MPEC" for P10HOx3

Created 2018 Jun 17 17:18:20 UT using Find_Orb

Click here for an explanation of pseudo-MPECs

 
 Astrometry: 
     P10HOx3  C2018 06 148qAstrometry#Yc$18L-i_I`/+nrTyO/Kb)V],iYD:\WXR[ikbv4F51
     P10HOx3  C2018 06 14GyNV*B(^AWGGsPWV65Z;L8s$MI5m76lfGQbOi^-7+ZAb72cLlXR^F51
     P10HOx3  C2018 06 14+WfGZUnrla8mlTB[8)LCdH`UZ#'[4?@E+g%:\Q,wiSCDv$6Y+4C-F51
     P10HOx3 ^C2018 06 15.35057215 50 38.689-19 25 20.79         20.77GVNEOCP568
     P10HOx3 ^C2018 06 15.35151715 50 38.956-19 25 27.30         20.75GVNEOCP568
     P10HOx3 ^C2018 06 15.35246115 50 39.224-19 25 33.86         20.77GVNEOCP568
     P10HOx3 KC2018 06 15txgQZG2nfR9Ksrf/Jredacted;L`m)kVb(5G3TjeAAEh-m/9`Z23474
     P10HOx3 KC2018 06 15v]M6P-@Bc\$R)@e]0QXQP^x/w^DcqD9.KP92J5u,9(iYmLCD*tO^474
     P10HOx3 KC2018 06 152Mnce876@EJ^NtM$Zf,IESOBR3'q(T?EseesWL0HF0pHlDvJXbV'474
     P10HOx3 KC2018 06 17b00*bC!Cn)Q4OJEU5m!E1KmXoi(M,9.nIRe;S./7_C@ciOx6PCUk291
     P10HOx3 KC2018 06 17Z$4+@Umh$1ACNQi?jg_TV4RFPHsA\QUy\PTO3:9Vthbd-RQG`a5m291
     P10HOx3 KC2018 06 17aTC0'F3syo#TyBA9[w4#9Rel)f,D!y+/vokn$h;sEIrgjf#NEOCP291

Station data:
(291) LPL/Spacewatch II  (N31.961669 W111.599905)  US/Arizona.  Observers J.
   V. Scotti, R. S. McMillan. 1.8-m f/2.7 reflector + CCD.
(474) Mount John Observatory, Lake Tekapo  (S43.987388 E170.464960)  New
   Zealand.  Observers A. C. Gilmore, P. M. Kilmartin. Measurer P. M.
   Kilmartin. 1.0-m f/7.7 reflector + CCD.
(568) Mauna Kea  (N19.826116 W155.472200)  US/Hawaii.
(F51) Pan-STARRS 1, Haleakala  (N20.707235 W156.255910)  US/Hawaii.
   Observers N. Primak, A. Schultz, S. Watters, J. Thiel, T. Goggia. Measurer
   PS1 Science Consortium. 1.8-m Ritchey-Chrétien + CCD.

Orbital elements:  P10HOx3
   Perihelion 2018 May 25.964570 +/- 0.0383 TT = 23:08:58 (JD 2458264.464570)
Epoch 2018 Jun 17.0 TT = JDT 2458286.5   Earth MOID: 0.1025   AutoNEOCP
M   6.16770 +/- 0.09                (J2000 ecliptic)
n   0.27989951 +/- 0.00365          Peri.  158.50556 +/- 0.032
a   2.31455735 +/- 0.0201           Node    81.81102 +/- 0.013
e   0.5230923 +/- 0.0039            Incl.   10.15740 +/- 0.049
P   3.52                   H 24.4   G  0.15   U  9.0  
q 1.10383016 +/- 0.00058    Q 3.52528455 +/- 0.0393
From 12 observations 2018 June 14-17; mean residual 0".32
Residuals in arcseconds: 
180614 F51  .07+  .14-    180615 568  .08-  .00     180615 474  .63-  .02-    
180614 F51  .01+  .10+    180615 568  .10-  .01+    180617 291  .71+  .63+    
180614 F51  .02-  .07+    180615 474  .39+  .31+    180617 291  .13-  .16-    
180615 568  .04-  .06-    180615 474  .39+  .29-    180617 291  .56-  .45-    

Ephemerides (geocentric):
Date (UTC) HH   RA              Dec         delta   r     elong  mag " sig PA
---- -- -- --  -------------   -----------  ------ ------ -----  --- ---- ---
2018 06 17 17  16 03 03.727   -23 45 31.90  .12906 1.1359 157.0 21.2  .40  22
2018 06 17 18  16 03 16.919   -23 49 54.94  .12917 1.1360 157.0 21.2  .41  21
2018 06 17 19  16 03 30.111   -23 54 17.48  .12927 1.1361 157.1 21.2  .43  20
2018 06 17 20  16 03 43.303   -23 58 39.53  .12938 1.1363 157.1 21.2  .44  19
2018 06 17 21  16 03 56.495   -24 03 01.09  .12949 1.1364 157.1 21.2  .45  19
2018 06 17 22  16 04 09.687   -24 07 22.14  .12960 1.1365 157.1 21.2  .46  18
2018 06 17 23  16 04 22.878   -24 11 42.70  .12970 1.1366 157.1 21.2  .48  17
2018 06 18 00  16 04 36.070   -24 16 02.76  .12981 1.1367 157.1 21.2  .49  17
2018 06 18 01  16 04 49.261   -24 20 22.32  .12992 1.1368 157.1 21.2  .50  16
2018 06 18 02  16 05 02.451   -24 24 41.38  .13003 1.1370 157.2 21.2  .52  16
2018 06 18 03  16 05 15.642   -24 28 59.94  .13014 1.1371 157.2 21.2  .53  15
2018 06 18 04  16 05 28.832   -24 33 18.00  .13025 1.1372 157.2 21.2  .55  15
2018 06 18 05  16 05 42.021   -24 37 35.55  .13036 1.1373 157.2 21.2  .56  14
2018 06 18 06  16 05 55.210   -24 41 52.60  .13047 1.1374 157.2 21.2  .58  13
2018 06 18 07  16 06 08.399   -24 46 09.15  .13058 1.1375 157.2 21.2  .59  13
2018 06 18 08  16 06 21.587   -24 50 25.20  .13069 1.1377 157.2 21.2  .61  12
2018 06 18 09  16 06 34.774   -24 54 40.73  .13080 1.1378 157.2 21.2  .62  12
2018 06 18 10  16 06 47.961   -24 58 55.77  .13091 1.1379 157.3 21.2  .64  11
2018 06 18 11  16 07 01.147   -25 03 10.29  .13103 1.1380 157.3 21.2  .66  11
2018 06 18 12  16 07 14.333   -25 07 24.31  .13114 1.1381 157.3 21.2  .67  11
2018 06 18 13  16 07 27.517   -25 11 37.82  .13125 1.1383 157.3 21.2  .69  10
2018 06 18 14  16 07 40.701   -25 15 50.82  .13137 1.1384 157.3 21.2  .71  10
2018 06 18 15  16 07 53.884   -25 20 03.31  .13148 1.1385 157.3 21.3  .72   9
2018 06 18 16  16 08 07.067   -25 24 15.30  .13160 1.1386 157.3 21.3  .74   9
2018 06 18 17  16 08 20.248   -25 28 26.77  .13171 1.1387 157.3 21.3  .76   9
2018 06 18 18  16 08 33.428   -25 32 37.73  .13183 1.1388 157.4 21.3  .78   8
2018 06 18 19  16 08 46.608   -25 36 48.18  .13194 1.1390 157.4 21.3  .80   8
2018 06 18 20  16 08 59.786   -25 40 58.12  .13206 1.1391 157.4 21.3  .81   7
2018 06 18 21  16 09 12.963   -25 45 07.54  .13217 1.1392 157.4 21.3  .83   7
2018 06 18 22  16 09 26.139   -25 49 16.46  .13229 1.1393 157.4 21.3  .85   7
2018 06 18 23  16 09 39.314   -25 53 24.86  .13241 1.1394 157.4 21.3  .87   6
2018 06 19 00  16 09 52.488   -25 57 32.74  .13252 1.1396 157.4 21.3  .89   6
2018 06 19 01  16 10 05.661   -26 01 40.11  .13264 1.1397 157.4 21.3  .91   6
2018 06 19 02  16 10 18.832   -26 05 46.97  .13276 1.1398 157.4 21.3  .93   5
2018 06 19 03  16 10 32.002   -26 09 53.30  .13288 1.1399 157.4 21.3  .95   5
2018 06 19 04  16 10 45.171   -26 13 59.13  .13300 1.1401 157.4 21.3  .97   5
2018 06 19 05  16 10 58.339   -26 18 04.44  .13312 1.1402 157.5 21.3  1.0   5
2018 06 19 06  16 11 11.505   -26 22 09.23  .13324 1.1403 157.5 21.3  1.0   4
2018 06 19 07  16 11 24.669   -26 26 13.50  .13336 1.1404 157.5 21.3  1.0   4
2018 06 19 08  16 11 37.832   -26 30 17.25  .13348 1.1405 157.5 21.3  1.1   4
2018 06 19 09  16 11 50.994   -26 34 20.49  .13360 1.1407 157.5 21.3  1.1   3
2018 06 19 10  16 12 04.153   -26 38 23.21  .13372 1.1408 157.5 21.3  1.1   3
2018 06 19 11  16 12 17.312   -26 42 25.41  .13384 1.1409 157.5 21.3  1.1   3
2018 06 19 12  16 12 30.468   -26 46 27.09  .13396 1.1410 157.5 21.3  1.1   3
2018 06 19 13  16 12 43.623   -26 50 28.25  .13408 1.1412 157.5 21.3  1.2   2
2018 06 19 14  16 12 56.777   -26 54 28.89  .13421 1.1413 157.5 21.3  1.2   2
2018 06 19 15  16 13 09.928   -26 58 29.01  .13433 1.1414 157.5 21.3  1.2   2
2018 06 19 16  16 13 23.078   -27 02 28.61  .13445 1.1415 157.5 21.3  1.2   2